ACA856 CYYT-CYQB

Flight info

Callsign ACA856
Flight time 1h 57m
Altitude 32000
Route CADIL DCT USBAM DCT MIVAX DCT SIMTO SIMTO4
Aircraft MD82/M-SDFGIJ1RWY/S

Departure

Time 2026-05-04 15:38
Airport St. John's International Airport (CYYT)

Arrival

Time 2026-05-04 17:35
Airport Quebec Jean Lesage International Airport (CYQB)
Time Latitude Longitude Altitude Speed Heading
2026-05-04 15:13 47.62202 -52.73642 450 ft 0 kts 280°
2026-05-04 15:28 47.62202 -52.73662 450 ft 0 kts 264°
2026-05-04 15:34 47.62201 -52.73678 450 ft 2 kts 264°
2026-05-04 15:35 47.62226 -52.73718 450 ft 6 kts 346°
2026-05-04 15:35 47.62277 -52.73736 450 ft 10 kts 346°
2026-05-04 15:35 47.62352 -52.73785 450 ft 14 kts 325°
2026-05-04 15:36 47.62509 -52.73928 450 ft 7 kts 333°
2026-05-04 15:36 47.62517 -52.73936 451 ft 1 kts 320°
2026-05-04 15:36 47.62524 -52.73968 451 ft 4 kts 264°
2026-05-04 15:37 47.62522 -52.73980 451 ft 0 kts 261°
2026-05-04 15:37 47.62516 -52.74051 452 ft 29 kts 263°
2026-05-04 15:37 47.62482 -52.74682 455 ft 91 kts 265°
2026-05-04 15:38 47.62406 -52.75861 466 ft 135 kts 256°
2026-05-04 15:38 47.62317 -52.77322 987 ft 145 kts 256°
2026-05-04 15:38 47.62267 -52.78800 1796 ft 144 kts 253°
2026-05-04 15:38 47.62252 -52.80273 2477 ft 144 kts 254°
2026-05-04 15:39 47.62259 -52.81779 3050 ft 150 kts 258°
2026-05-04 15:39 47.62322 -52.83377 3474 ft 163 kts 259°
2026-05-04 15:39 47.62434 -52.87060 4037 ft 201 kts 262°
2026-05-04 15:40 47.62544 -52.89297 4085 ft 228 kts 263°
2026-05-04 15:40 47.62669 -52.91704 4628 ft 235 kts 264°
2026-05-04 15:40 47.62813 -52.94140 5318 ft 240 kts 264°
2026-05-04 15:40 47.62962 -52.96615 6084 ft 243 kts 263°
2026-05-04 15:41 47.63104 -52.99111 6928 ft 243 kts 263°
2026-05-04 15:41 47.63239 -53.01630 7700 ft 247 kts 262°
2026-05-04 15:41 47.63368 -53.04176 8494 ft 249 kts 262°
2026-05-04 15:41 47.63493 -53.06758 9264 ft 252 kts 262°
2026-05-04 15:42 47.63617 -53.09362 9974 ft 254 kts 262°
2026-05-04 15:42 47.63738 -53.11984 10670 ft 256 kts 263°
2026-05-04 15:42 47.63859 -53.14626 11365 ft 257 kts 263°
2026-05-04 15:42 47.63980 -53.17278 12061 ft 258 kts 263°
2026-05-04 15:43 47.64101 -53.19935 12749 ft 259 kts 263°
2026-05-04 15:43 47.64224 -53.22599 13413 ft 259 kts 263°
2026-05-04 15:43 47.64347 -53.25266 14007 ft 259 kts 264°
2026-05-04 15:43 47.64473 -53.27904 14600 ft 260 kts 264°
2026-05-04 15:44 47.64599 -53.30576 15183 ft 260 kts 264°
2026-05-04 15:44 47.64720 -53.33251 15777 ft 260 kts 264°
2026-05-04 15:44 47.64844 -53.35922 16344 ft 260 kts 264°
2026-05-04 15:44 47.64966 -53.38594 16922 ft 260 kts 264°
2026-05-04 15:45 47.65091 -53.41267 17475 ft 260 kts 264°
2026-05-04 15:45 47.65210 -53.43944 17935 ft 263 kts 264°
2026-05-04 15:45 47.65295 -53.46736 18006 ft 279 kts 263°
2026-05-04 15:45 47.65367 -53.49696 18094 ft 295 kts 264°
2026-05-04 15:46 47.65453 -53.52810 18209 ft 308 kts 265°
2026-05-04 15:46 47.65555 -53.56054 18318 ft 322 kts 265°
2026-05-04 15:46 47.65673 -53.59409 18422 ft 336 kts 266°
2026-05-04 15:46 47.65808 -53.62949 18530 ft 351 kts 266°
2026-05-04 15:47 47.65956 -53.66639 18626 ft 365 kts 267°
2026-05-04 15:47 47.66116 -53.70469 18768 ft 378 kts 267°
2026-05-04 15:47 47.66285 -53.74382 19205 ft 381 kts 267°
2026-05-04 15:47 47.66456 -53.78310 19715 ft 383 kts 267°
2026-05-04 15:48 47.66626 -53.82267 20200 ft 385 kts 267°
2026-05-04 15:48 47.66792 -53.86242 20647 ft 388 kts 267°
2026-05-04 15:48 47.67114 -53.94284 21584 ft 392 kts 267°
2026-05-04 15:49 47.67273 -53.98340 22011 ft 395 kts 267°
2026-05-04 15:49 47.67433 -54.02430 22442 ft 398 kts 267°
2026-05-04 15:49 47.67591 -54.06545 22837 ft 401 kts 267°
2026-05-04 15:49 47.67737 -54.10684 23235 ft 403 kts 266°
2026-05-04 15:50 47.67876 -54.14858 23563 ft 405 kts 266°
2026-05-04 15:50 47.68013 -54.19053 23864 ft 409 kts 266°
2026-05-04 15:50 47.68152 -54.23285 24172 ft 411 kts 266°
2026-05-04 15:50 47.68293 -54.27485 24484 ft 414 kts 266°
2026-05-04 15:51 47.68439 -54.31759 24814 ft 416 kts 266°
2026-05-04 15:51 47.68585 -54.36061 25098 ft 419 kts 266°
2026-05-04 15:51 47.68734 -54.40411 25361 ft 422 kts 266°
2026-05-04 15:51 47.68888 -54.44773 25664 ft 425 kts 266°
2026-05-04 15:52 47.69040 -54.49164 25963 ft 426 kts 267°
2026-05-04 15:52 47.69190 -54.53568 26236 ft 429 kts 267°
2026-05-04 15:52 47.69343 -54.58008 26475 ft 432 kts 267°
2026-05-04 15:52 47.69498 -54.62470 26760 ft 434 kts 267°
2026-05-04 15:53 47.69652 -54.66963 27042 ft 436 kts 267°
2026-05-04 15:53 47.69791 -54.71471 27289 ft 439 kts 266°
2026-05-04 15:53 47.69919 -54.76001 27561 ft 440 kts 267°
2026-05-04 15:53 47.70045 -54.80552 27801 ft 443 kts 267°
2026-05-04 15:54 47.70170 -54.85135 28012 ft 445 kts 267°
2026-05-04 15:54 47.70301 -54.89732 28306 ft 446 kts 267°
2026-05-04 15:54 47.70433 -54.94322 28694 ft 444 kts 267°
2026-05-04 15:54 47.70566 -54.98895 29055 ft 443 kts 268°
2026-05-04 15:55 47.70701 -55.03469 29377 ft 443 kts 268°
2026-05-04 15:55 47.70790 -55.06499 29566 ft 442 kts 267°
2026-05-04 15:55 47.70924 -55.11062 29809 ft 442 kts 268°
2026-05-04 15:55 47.71104 -55.17125 30094 ft 443 kts 268°
2026-05-04 15:56 47.71240 -55.21689 30347 ft 442 kts 268°
2026-05-04 15:56 47.71331 -55.24765 30501 ft 442 kts 267°
2026-05-04 15:56 47.71461 -55.29276 30726 ft 442 kts 267°
2026-05-04 15:56 47.71574 -55.33837 30932 ft 442 kts 267°
2026-05-04 15:57 47.71678 -55.38411 31075 ft 444 kts 267°
2026-05-04 15:57 47.71779 -55.42997 31139 ft 445 kts 267°
2026-05-04 15:57 47.71985 -55.52171 31163 ft 443 kts 267°
2026-05-04 15:58 47.72203 -55.61308 31154 ft 442 kts 267°
2026-05-04 15:58 47.72424 -55.70458 31145 ft 443 kts 267°
2026-05-04 15:59 47.72643 -55.79511 31142 ft 441 kts 267°
2026-05-04 15:59 47.72861 -55.88631 31131 ft 443 kts 267°
2026-05-04 16:00 47.73042 -55.97759 31126 ft 441 kts 267°
2026-05-04 16:00 47.73198 -56.06861 31124 ft 441 kts 267°
2026-05-04 16:01 47.73358 -56.15952 31117 ft 439 kts 267°
2026-05-04 16:01 47.73528 -56.25009 31119 ft 437 kts 267°
2026-05-04 16:02 47.73700 -56.34027 31123 ft 437 kts 267°
2026-05-04 16:02 47.73863 -56.43057 31240 ft 437 kts 267°
2026-05-04 16:03 47.73945 -56.47595 31287 ft 440 kts 267°
2026-05-04 16:03 47.74095 -56.56714 31331 ft 442 kts 267°
2026-05-04 16:04 47.74208 -56.65842 31329 ft 440 kts 267°
2026-05-04 16:04 47.74376 -56.79435 31358 ft 437 kts 267°
2026-05-04 16:05 47.74495 -56.88402 31362 ft 437 kts 267°
2026-05-04 16:06 47.74676 -57.01961 31376 ft 438 kts 267°
2026-05-04 16:07 47.74890 -57.20051 31392 ft 436 kts 267°
2026-05-04 16:08 47.75009 -57.38045 31392 ft 435 kts 267°
2026-05-04 16:09 47.75187 -57.60418 31402 ft 434 kts 267°
2026-05-04 16:10 47.75321 -57.78353 31402 ft 433 kts 267°
2026-05-04 16:11 47.75344 -57.96282 31411 ft 433 kts 267°
2026-05-04 16:12 47.75414 -58.22938 31424 ft 430 kts 267°
2026-05-04 16:13 47.75443 -58.40739 31441 ft 431 kts 267°
2026-05-04 16:14 47.75372 -58.58528 31464 ft 429 kts 267°
2026-05-04 16:16 47.75307 -58.80581 31453 ft 426 kts 266°
2026-05-04 16:17 47.75236 -59.02566 31478 ft 426 kts 266°
2026-05-04 16:18 47.75069 -59.20144 31491 ft 424 kts 266°
2026-05-04 16:19 47.74888 -59.42049 31507 ft 423 kts 266°
2026-05-04 16:20 47.74699 -59.63853 31518 ft 423 kts 265°
2026-05-04 16:22 47.74378 -59.85715 31515 ft 423 kts 265°
2026-05-04 16:23 47.74028 -60.11694 31532 ft 420 kts 265°
2026-05-04 16:25 47.73668 -60.37710 31548 ft 420 kts 266°
2026-05-04 16:26 47.72703 -60.67794 31567 ft 417 kts 264°
2026-05-04 16:28 47.72145 -60.89379 31580 ft 418 kts 263°
2026-05-04 16:29 47.71234 -61.19477 31584 ft 416 kts 263°
2026-05-04 16:31 47.70502 -61.40958 31582 ft 418 kts 263°
2026-05-04 16:32 47.69639 -61.66810 31607 ft 420 kts 262°
2026-05-04 16:33 47.68959 -61.84100 31616 ft 418 kts 261°
2026-05-04 16:34 47.68445 -61.97018 31646 ft 418 kts 261°
2026-05-04 16:35 47.67434 -62.22830 31663 ft 419 kts 261°
2026-05-04 16:36 47.66899 -62.35799 31668 ft 420 kts 261°
2026-05-04 16:37 47.66300 -62.48790 31677 ft 421 kts 260°
2026-05-04 16:38 47.65522 -62.66130 31688 ft 421 kts 260°
2026-05-04 16:39 47.64562 -62.87677 31698 ft 420 kts 260°
2026-05-04 16:40 47.63592 -63.04965 31703 ft 422 kts 259°
2026-05-04 16:41 47.62841 -63.26734 31704 ft 424 kts 263°
2026-05-04 16:43 47.62929 -63.48647 31706 ft 426 kts 263°
2026-05-04 16:43 47.62945 -63.61785 31712 ft 427 kts 262°
2026-05-04 16:45 47.62947 -63.86772 31720 ft 429 kts 262°
2026-05-04 16:46 47.62818 -64.08967 31728 ft 432 kts 261°
2026-05-04 16:47 47.62731 -64.26853 31734 ft 434 kts 261°
2026-05-04 16:48 47.62645 -64.44729 31741 ft 435 kts 261°
2026-05-04 16:49 47.62458 -64.62637 31755 ft 435 kts 260°
2026-05-04 16:50 47.62262 -64.80598 31764 ft 436 kts 260°
2026-05-04 16:51 47.62128 -64.94077 31772 ft 435 kts 259°
2026-05-04 16:52 47.61930 -65.11876 31770 ft 432 kts 259°
2026-05-04 16:53 47.61696 -65.25246 31785 ft 433 kts 258°
2026-05-04 16:54 47.61409 -65.43120 31791 ft 434 kts 258°
2026-05-04 16:55 47.60993 -65.69847 31788 ft 431 kts 258°
2026-05-04 16:56 47.60503 -65.92092 31798 ft 433 kts 258°
2026-05-04 16:57 47.60224 -66.05500 31800 ft 434 kts 257°
2026-05-04 16:58 47.59849 -66.23296 31812 ft 432 kts 257°
2026-05-04 17:00 47.59170 -66.49968 31832 ft 432 kts 257°
2026-05-04 17:01 47.58579 -66.72207 31838 ft 433 kts 257°
2026-05-04 17:02 47.58104 -66.90039 31839 ft 433 kts 257°
2026-05-04 17:03 47.57700 -67.03327 31857 ft 433 kts 257°
2026-05-04 17:03 47.57251 -67.16722 31861 ft 435 kts 257°
2026-05-04 17:04 47.56684 -67.34661 31865 ft 435 kts 257°
2026-05-04 17:05 47.56118 -67.52518 31869 ft 434 kts 257°
2026-05-04 17:06 47.55620 -67.65923 31875 ft 435 kts 257°
2026-05-04 17:07 47.55160 -67.77848 31873 ft 436 kts 258°
2026-05-04 17:07 47.54774 -67.88258 31879 ft 437 kts 258°
2026-05-04 17:08 47.54276 -68.01746 31888 ft 437 kts 258°
2026-05-04 17:09 47.53941 -68.10737 31879 ft 438 kts 259°
2026-05-04 17:09 47.53590 -68.19750 31903 ft 441 kts 259°
2026-05-04 17:10 47.53181 -68.28818 32367 ft 439 kts 259°
2026-05-04 17:10 47.52609 -68.42160 32583 ft 432 kts 259°
2026-05-04 17:11 47.52417 -68.46617 32473 ft 439 kts 260°
2026-05-04 17:11 47.52223 -68.51105 32064 ft 444 kts 259°
2026-05-04 17:11 47.51858 -68.60033 31758 ft 427 kts 259°
2026-05-04 17:12 47.51677 -68.64402 31723 ft 425 kts 259°
2026-05-04 17:13 47.50654 -68.86651 31703 ft 440 kts 259°
2026-05-04 17:14 47.49780 -69.04639 31693 ft 436 kts 259°
2026-05-04 17:15 47.49142 -69.17975 31700 ft 435 kts 260°
2026-05-04 17:16 47.48277 -69.35880 31695 ft 437 kts 260°
2026-05-04 17:17 47.47325 -69.53791 31703 ft 437 kts 260°
2026-05-04 17:17 47.46594 -69.67248 31258 ft 445 kts 260°
2026-05-04 17:18 47.46353 -69.71806 30799 ft 443 kts 260°
2026-05-04 17:18 47.45884 -69.80807 29321 ft 437 kts 260°
2026-05-04 17:19 47.45398 -69.89733 27393 ft 435 kts 260°
2026-05-04 17:19 47.44905 -69.98675 25578 ft 434 kts 261°
2026-05-04 17:20 47.44418 -70.07428 23807 ft 426 kts 262°
2026-05-04 17:20 47.43469 -70.15903 21893 ft 412 kts 242°
2026-05-04 17:20 47.41958 -70.19438 21054 ft 404 kts 232°
2026-05-04 17:21 47.38442 -70.25776 19544 ft 393 kts 230°
2026-05-04 17:21 47.34912 -70.31783 18300 ft 381 kts 230°
2026-05-04 17:22 47.33213 -70.34681 17674 ft 375 kts 230°
2026-05-04 17:22 47.31532 -70.37587 17073 ft 370 kts 231°
2026-05-04 17:23 47.26674 -70.46133 15311 ft 357 kts 231°
2026-05-04 17:23 47.25075 -70.48961 14755 ft 365 kts 231°
2026-05-04 17:23 47.21784 -70.54776 13625 ft 370 kts 231°
2026-05-04 17:24 47.20141 -70.57668 12993 ft 367 kts 231°
2026-05-04 17:24 47.15302 -70.66145 11238 ft 354 kts 231°
2026-05-04 17:25 47.13719 -70.68887 10958 ft 349 kts 231°
2026-05-04 17:25 47.10600 -70.74283 10576 ft 343 kts 231°
2026-05-04 17:26 47.07630 -70.79432 10243 ft 315 kts 231°
2026-05-04 17:26 47.04190 -70.86886 9772 ft 279 kts 246°
2026-05-04 17:27 47.02698 -70.91688 9213 ft 240 kts 246°
2026-05-04 17:27 47.01345 -70.95984 8012 ft 230 kts 246°
2026-05-04 17:28 46.99992 -71.00179 6708 ft 228 kts 246°
2026-05-04 17:29 46.97941 -71.06409 5149 ft 225 kts 246°
2026-05-04 17:29 46.95911 -71.12539 4195 ft 219 kts 245°
2026-05-04 17:30 46.93810 -71.18295 4023 ft 217 kts 229°
2026-05-04 17:31 46.91618 -71.21433 3681 ft 219 kts 226°
2026-05-04 17:31 46.88487 -71.25821 2650 ft 183 kts 226°
2026-05-04 17:32 46.86838 -71.28157 1976 ft 161 kts 227°
2026-05-04 17:33 46.84628 -71.31370 1238 ft 138 kts 226°
2026-05-04 17:33 46.83939 -71.32361 1218 ft 139 kts 226°
2026-05-04 17:34 46.82128 -71.35042 1051 ft 142 kts 228°
2026-05-04 17:34 46.81188 -71.36388 728 ft 144 kts 226°
2026-05-04 17:35 46.79250 -71.39188 246 ft 76 kts 223°
2026-05-04 17:35 46.78946 -71.39628 248 ft 4 kts 224°
2026-05-04 17:35 46.78931 -71.39646 249 ft 7 kts 218°
2026-05-04 17:36 46.78866 -71.39652 251 ft 10 kts 141°
2026-05-04 17:36 46.78839 -71.39527 248 ft 17 kts 98°
2026-05-04 17:36 46.78876 -71.39368 245 ft 19 kts 47°
2026-05-04 17:36 46.78971 -71.39226 244 ft 20 kts 42°
2026-05-04 17:37 46.79076 -71.39089 244 ft 20 kts 41°
2026-05-04 17:37 46.79180 -71.38945 244 ft 21 kts 45°
2026-05-04 17:37 46.79284 -71.38793 244 ft 21 kts 46°
2026-05-04 17:37 46.79378 -71.38651 244 ft 12 kts 45°
2026-05-04 17:38 46.79422 -71.38552 244 ft 12 kts 88°
2026-05-04 17:38 46.79379 -71.38448 244 ft 13 kts 135°
2026-05-04 17:38 46.79351 -71.38406 244 ft 0 kts 134°